Probability
0 0 0 0 0 0 0 0 0 0 0 0 0 0 0 0 0 1 2 3 3 3 3 3 2 2 1 1 0 0 0 0 0 0 0 0 0 0 0 0 0 0 0
0 0 0 0 0 0 0 0 0 0 0 0 0 0 0 0 0 0 1 2 3 3 3 3 3 3 2 2 1 0 0 0 0 0 0 0 0 0 0 0 0 0 0
0 0 0 0 0 0 0 0 0 0 0 0 0 0 0 0 0 0 0 1 1 2 3 3 4 5 4 3 2 1 1 0 0 0 0 0 0 0 0 0 0 0 0
0 0 0 0 0 0 0 0 0 0 0 0 0 0 0 0 0 0 0 0 0 1 1 3 5 6 4 3 3 2 1 0 0 0 0 0 0 0 0 0 0 0 0
0 0 0 0 0 0 0 0 0 0 0 0 0 0 0 0 0 0 0 0 0 0 0 1 3 5 4 3 3 2 1 0 0 0 0 0 0 0 0 0 0 0 0
0 0 0 0 0 0 0 0 0 0 0 0 0 0 0 0 0 0 0 0 0 0 0 0 1 3 4 4 3 1 1 0 0 0 0 0 0 0 0 0 0 0 0
0 0 0 0 0 0 0 0 0 0 0 0 0 0 0 0 0 0 0 0 0 0 0 0 1 2 3 4 3 1 0 0 0 0 0 0 0 0 0 0 0 0 0
0 0 0 0 0 0 0 0 0 0 0 0 0 0 0 0 0 0 0 0 0 0 0 0 0 1 2 3 2 1 0 0 0 0 0 0 0 0 0 0 0 0 0
0 0 0 0 0 0 0 0 0 0 0 0 0 0 0 0 0 0 0 0 0 0 0 0 0 0 1 1 1 0 0 0 0 0 0 0 0 0 0 0 0 0 0
0 0 0 0 0 0 0 0 0 0 0 0 0 0 0 0 0 0 0 0 0 0 0 0 0 0 0 0 0 0 0 0 0 0 0 0 0 0 0 0 0 0 0
0 0 0 0 0 0 0 0 0 0 0 0 0 0 0 0 0 0 0 0 0 0 0 0 0 0 0 0 0 0 0 0 0 0 0 0 0 0 0 0 0 0 0
0 0 0 0 0 0 0 0 0 0 0 0 0 0 0 0 0 0 0 0 0 0 0 0 0 0 0 0 0 0 0 0 0 0 0 0 0 0 0 0 0 0 0
0 0 0 0 0 0 0 0 0 0 0 0 0 0 0 0 0 0 0 0 0 0 0 0 0 0 0 0 0 0 0 0 0 0 0 0 0 0 0 0 0 0 0
0 0 0 0 0 0 0 0 0 0 0 0 0 0 0 0 0 0 0 0 0 0 0 0 0 0 0 0 0 0 0 0 0 0 0 0 0 0 0 0 0 0 0
0 0 0 0 0 0 0 0 0 0 0 0 0 0 0 0 0 0 0 0 0 0 0 0 0 0 0 0 0 0 0 0 0 0 0 0 0 0 0 0 0 0 0
0 0 0 0 0 0 0 0 0 0 0 0 0 0 0 0 0 0 0 0 0 0 0 0 0 0 0 0 0 0 0 0 0 0 0 0 0 0 0 0 0 0 0
0 0 0 0 0 0 0 0 0 0 0 0 0 0 0 0 0 0 0 0 0 0 0 0 0 0 0 0 0 0 0 0 0 0 0 0 0 0 0 0 0 0 0
0 0 0 0 0 0 0 0 0 0 0 0 0 0 0 0 0 0 0 0 0 0 0 0 0 0 0 0 0 0 0 0 0 0 0 0 0 0 0 0 0 0 0
0 0 0 0 0 0 0 0 0 0 0 0 0 0 0 0 0 0 0 0 0 0 0 0 0 0 0 0 0 0 0 0 0 0 0 0 0 0 0 0 0 0 0
0 0 0 0 0 0 0 0 0 0 0 0 0 0 0 0 0 0 0 0 0 0 0 0 0 0 0 0 0 0 0 0 0 0 0 0 0 0 0 0 0 0 0
0 0 0 0 0 0 0 0 0 0 0 0 0 0 0 0 0 0 0 0 0 0 0 0 0 0 0 0 0 0 0 0 0 0 0 0 0 0 0 0 0 0 0
0 0 0 0 0 0 0 0 0 0 0 0 0 0 0 0 0 0 0 0 0 0 0 0 0 0 0 0 0 0 0 0 0 0 0 0 0 0 0 0 0 0 0
0 0 0 0 0 0 0 0 0 0 0 0 0 0 0 0 0 0 0 0 0 0 0 0 0 0 0 0 0 0 0 0 0 0 0 0 0 0 0 0 0 0 0
0 0 0 0 0 0 0 0 0 0 0 0 0 0 0 0 0 0 0 0 0 0 0 0 0 0 0 0 0 0 0 0 0 0 0 0 0 0 0 0 0 0 0
0 0 0 0 0 0 0 0 0 0 0 0 0 0 0 0 0 0 0 0 0 0 0 0 0 0 0 0 0 0 0 0 0 0 0 0 0 0 0 0 0 0 0
0 0 0 0 0 0 0 0 0 0 0 0 0 0 0 0 0 0 0 0 0 0 0 0 0 0 0 0 0 0 0 0 0 0 0 0 0 0 0 0 0 0 0
Wind_Speed
5 5 5 6 6 6 6 7 7 6 6 6 6 5 4 3 3 2 2 2 3 4 4 6 6 6 5 5 5 5 5 4 4 2 1 2 3 4 4 4 4 5 5
4 4 5 5 6 6 6 7 7 7 7 6 6 6 5 4 3 2 2 2 2 3 4 5 6 5 6 5 5 6 6 5 4 4 3 2 3 5 5 5 5 5 5
3 4 5 5 6 6 6 7 7 7 7 7 6 6 6 5 4 3 2 2 2 3 3 5 6 7 7 5 6 6 5 5 4 5 4 3 3 4 6 6 6 5 5
3 3 4 5 5 5 6 6 6 6 6 7 6 6 6 5 5 4 3 2 2 2 3 4 5 6 7 7 6 6 6 6 6 6 6 4 4 5 6 6 5 4 5
3 3 4 5 5 5 5 6 6 6 6 6 6 7 6 5 5 4 3 3 2 2 2 2 4 6 8 8 6 6 7 6 6 6 6 5 5 7 6 5 7 6 4
2 3 4 5 5 5 6 6 6 6 6 6 6 6 7 6 10 9 5 2 2 2 2 2 2 4 8 9 10 11 10 8 7 6 5 7 7 7 6 8 8 7 4
3 4 4 4 5 5 6 6 6 6 5 6 6 6 7 8 12 10 7 2 2 2 2 1 1 2 4 4 7 10 10 10 10 7 8 8 8 8 9 9 8 5 5
3 4 4 4 5 5 5 5 5 4 5 5 6 6 6 9 13 11 8 3 2 2 2 1 0 1 2 4 5 6 5 5 7 6 6 7 7 8 9 8 9 8 7
4 4 4 3 4 5 5 5 4 4 5 4 5 6 7 9 13 12 7 2 2 3 3 2 1 1 3 7 6 6 5 4 5 7 7 8 12 13 12 10 9 9 6
5 4 4 3 3 4 5 4 3 4 4 4 4 5 6 7 12 12 8 2 2 2 2 2 3 3 4 6 5 6 6 5 5 7 8 9 10 13 14 10 10 9 6
4 3 3 3 3 3 3 3 3 4 4 4 5 5 5 7 10 12 9 2 2 2 2 2 2 4 5 6 5 4 6 6 6 7 7 7 7 6 6 5 5 7 6
3 3 3 3 3 2 2 3 3 4 4 5 5 5 4 5 7 10 10 7 4 2 2 2 2 5 7 7 5 8 10 8 5 6 6 6 6 6 5 6 7 6 4
4 5 4 4 3 2 2 2 2 3 3 3 4 4 5 5 6 10 10 9 7 3 3 5 6 8 7 6 8 10 7 5 5 6 6 4 4 5 7 7 8 8 9
6 5 4 4 4 3 2 2 1 2 2 3 3 4 4 4 4 5 5 4 5 4 4 6 8 9 7 7 7 5 4 4 5 5 5 4 4 5 5 5 5 5 5
6 6 5 4 4 4 3 3 3 4 4 3 2 2 3 3 5 7 4 3 2 2 2 3 3 3 4 4 4 4 4 4 5 4 5 5 5 5 4 4 4 3 4
6 6 5 4 4 3 3 3 6 7 8 8 6 4 4 5 6 7 6 5 3 2 3 2 2 2 3 3 3 3 3 3 4 4 5 5 5 6 5 3 3 4 4
8 7 5 5 5 4 4 3 4 4 6 8 7 7 6 5 4 4 4 4 3 2 2 2 2 2 2 2 2 2 2 2 3 4 5 5 5 5 5 4 4 4 4
9 9 7 6 5 5 5 5 4 3 3 3 4 7 7 6 4 3 2 1 2 2 1 1 1 1 1 2 2 2 3 3 3 4 4 4 4 4 4 4 4 4 4
8 7 7 6 6 6 5 5 4 5 4 4 3 3 5 5 4 4 2 1 2 1 1 2 2 2 2 2 2 2 3 3 3 4 4 4 4 4 4 4 4 6 4
8 12 10 6 6 6 5 5 5 5 5 5 5 4 2 2 2 3 3 3 3 3 3 3 3 3 3 3 3 3 3 3 4 3 3 4 4 4 5 6 6 5 4
6 8 12 8 7 7 7 7 7 6 6 6 6 6 8 5 5 5 4 4 5 5 5 4 4 4 4 3 3 4 4 4 4 4 4 4 4 4 4 4 5 5 4
6 6 6 8 8 8 8 7 7 7 8 8 6 5 10 6 5 5 5 6 6 5 5 5 5 4 5 5 5 5 5 5 5 5 4 4 4 4 4 4 5 4 5
7 7 7 7 8 10 9 7 7 8 8 8 7 6 6 7 7 7 7 6 6 6 5 5 5 5 5 5 5 6 6 7 6 7 6 6 5 5 5 5 6 5 5
9 8 8 8 7 7 8 9 8 9 9 8 8 7 7 8 8 9 8 6 6 6 6 6 7 8 9 7 5 5 5 5 6 6 8 7 7 6 5 5 6 6 6
9 9 8 8 7 8 8 9 9 9 9 9 9 8 8 8 8 8 8 7 8 7 8 8 7 8 11 11 9 8 10 11 10 7 7 6 7 7 7 6 5 5 5
10 10 9 8 7 7 8 8 9 9 9 9 9 9 9 9 9 9 8 8 8 8 8 8 10 11 11 10 12 13 14 14 14 12 8 6 7 7 7 6 7 6 6
Wind_Direction
333 336 343 342 343 346 347 344 342 338 339 341 339 340 336 332 323 293 266 240 223 218 210 202 202 189 186 192 189 185 182 167 170 159 151 133 139 141 134 137 135 140 148
324 335 339 339 342 345 342 339 341 342 341 341 342 347 346 343 337 327 299 269 233 223 214 205 201 191 189 189 189 190 185 176 163 161 157 149 142 139 133 132 128 128 124
327 337 340 340 340 338 336 336 340 342 342 345 347 347 344 340 337 335 324 292 253 239 224 214 205 190 191 189 186 186 184 179 162 157 158 148 137 133 125 117 114 110 113
327 337 335 330 328 328 332 337 338 339 342 344 343 344 340 335 333 333 333 324 298 268 242 224 208 194 190 185 185 183 179 173 164 159 155 149 144 138 135 133 126 111 111
329 332 323 321 326 332 338 337 337 342 344 342 345 346 343 339 338 336 328 326 320 312 286 245 218 199 195 189 184 180 175 171 165 163 159 155 157 157 153 143 136 123 98
316 315 319 326 332 336 335 336 340 344 343 349 350 344 344 342 340 342 337 323 323 316 301 279 233 206 201 198 191 184 178 174 170 167 167 170 167 158 145 146 143 142 134
304 310 319 324 328 330 334 341 342 341 344 347 345 345 342 336 343 349 354 345 334 323 306 303 267 203 183 177 182 179 182 181 175 166 168 173 168 164 155 154 154 142 127
296 303 310 319 321 327 336 338 335 334 339 339 340 341 339 342 350 353 357 358 354 349 341 309 274 228 183 157 152 152 155 164 170 170 173 174 165 159 157 150 138 115 101
281 287 297 309 316 326 333 331 329 331 336 336 336 344 345 341 350 354 359 347 358 5 0 4 49 132 160 139 136 133 129 129 135 145 152 155 153 150 144 136 137 137 132
260 269 284 295 304 312 317 319 321 322 322 329 339 344 345 341 346 352 359 352 6 3 3 19 43 66 100 119 131 134 133 127 125 124 125 132 141 147 149 152 152 148 136
250 264 279 286 289 294 312 319 326 331 337 342 340 337 343 344 345 354 3 5 8 9 15 22 39 75 90 97 108 122 129 125 119 120 121 122 125 130 131 129 137 148 144
239 254 267 277 285 307 317 324 336 343 345 344 342 340 340 343 349 354 9 22 27 32 23 19 47 77 88 93 98 117 119 114 113 113 116 121 125 125 118 109 101 87 81
230 245 256 265 268 275 290 311 328 342 342 336 338 337 334 338 347 0 9 18 25 34 41 55 65 74 80 88 100 108 109 108 110 110 112 105 99 112 111 100 89 86 76
228 242 244 250 263 263 249 251 269 294 311 320 326 326 325 332 347 352 351 1 18 32 44 61 68 69 71 78 82 79 78 96 108 110 107 99 96 106 112 112 115 112 95
228 237 238 236 244 255 249 232 232 236 222 243 269 282 306 324 327 337 344 347 356 23 53 56 58 67 70 68 69 70 76 87 95 104 114 113 112 109 103 100 108 103 109
225 233 230 228 232 237 252 272 242 235 248 245 239 238 252 265 302 332 350 1 12 48 73 75 71 77 91 94 98 86 79 95 103 114 118 121 125 124 116 101 97 112 120
220 226 221 218 221 224 226 237 270 277 254 251 250 248 244 262 290 319 344 2 23 65 79 90 98 103 109 113 114 113 115 118 117 121 123 125 125 124 123 121 115 112 114
223 228 221 218 216 215 217 220 221 238 270 279 262 251 248 248 260 276 305 36 36 50 108 147 153 151 148 144 139 129 125 126 123 126 129 133 135 133 133 138 139 138 136
225 226 222 217 214 213 212 213 215 220 231 247 265 271 249 241 245 252 223 176 196 205 197 193 191 179 170 162 157 151 147 146 146 144 146 149 149 143 147 151 150 150 143
237 234 222 215 213 211 208 210 216 218 224 229 237 237 209 180 214 226 209 201 200 205 203 200 197 192 183 174 168 159 154 156 158 158 161 162 162 161 161 162 164 165 171
252 243 232 221 216 214 211 212 214 214 218 224 231 222 192 195 213 215 211 209 208 206 202 198 196 192 189 179 173 174 174 176 175 172 169 169 167 167 167 166 170 170 160
275 253 233 226 223 219 217 216 211 212 217 223 231 226 209 204 212 214 214 216 214 209 199 190 194 196 191 187 183 180 182 183 183 179 175 173 172 170 162 163 165 166 166
297 277 255 240 230 226 223 218 214 216 219 220 220 213 201 207 214 217 219 217 209 206 199 193 195 199 197 194 190 185 187 193 189 181 176 175 175 174 169 171 171 167 178
312 295 276 258 241 231 227 224 220 219 220 220 218 214 211 210 213 216 217 213 207 205 198 195 200 203 198 194 195 196 198 192 179 181 180 177 178 177 174 174 177 182 183
323 313 299 281 260 243 236 232 227 223 221 220 219 217 213 211 213 216 213 208 205 206 204 200 201 204 203 199 196 198 200 197 189 179 176 177 180 179 177 178 176 177 179
331 324 314 304 289 269 251 241 235 229 225 222 219 217 213 212 212 213 209 204 204 208 206 203 204 203 201 201 203 202 200 199 196 188 176 176 180 183 180 183 183 180 180